TimeCST,TemperatureF,Dew PointF,Humidity,Sea Level PressureIn,VisibilityMPH,Wind Direction,Wind SpeedMPH,Gust SpeedMPH,PrecipitationIn,Events,Conditions,WindDirDegrees,DateUTC
12:15 AM,36.5,27.3,69,29.86,10.0,NW,13.8,18.4,N/A,,Overcast,320,2012-12-09 06:15:00
12:35 AM,35.8,27.1,71,29.86,10.0,NW,10.4,-,N/A,,Overcast,320,2012-12-09 06:35:00
12:55 AM,35.1,27.1,73,29.85,10.0,NW,8.1,-,N/A,,Overcast,320,2012-12-09 06:55:00
1:15 AM,34.9,27.5,74,29.86,10.0,West,8.1,-,N/A,,Overcast,280,2012-12-09 07:15:00
1:35 AM,35.4,27.3,72,29.86,10.0,WNW,12.7,-,N/A,,Overcast,300,2012-12-09 07:35:00
1:55 AM,35.2,27.0,72,29.87,10.0,WNW,15.0,19.6,N/A,,Overcast,300,2012-12-09 07:55:00
2:15 AM,34.7,24.6,67,29.87,10.0,NW,19.6,-,N/A,,Overcast,310,2012-12-09 08:15:00
2:35 AM,34.0,22.1,62,29.88,10.0,NW,21.9,28.8,N/A,,Mostly Cloudy,310,2012-12-09 08:35:00
2:55 AM,32.4,20.3,61,29.90,10.0,NW,16.1,-,N/A,,Mostly Cloudy,310,2012-12-09 08:55:00
3:15 AM,31.5,19.4,61,29.90,10.0,NW,17.3,25.3,N/A,,Mostly Cloudy,310,2012-12-09 09:15:00
3:35 AM,30.0,17.4,59,29.91,10.0,WNW,20.7,27.6,N/A,,Overcast,300,2012-12-09 09:35:00
3:55 AM,28.8,15.3,57,29.91,10.0,NW,21.9,31.1,N/A,,Overcast,310,2012-12-09 09:55:00
4:15 AM,27.5,12.2,53,29.93,10.0,WNW,25.3,33.4,N/A,,Overcast,300,2012-12-09 10:15:00
4:35 AM,26.6,11.1,52,29.93,10.0,WNW,25.3,31.1,N/A,,Overcast,300,2012-12-09 10:35:00
4:55 AM,26.1,10.9,53,29.94,10.0,NW,25.3,31.1,N/A,,Mostly Cloudy,310,2012-12-09 10:55:00
5:15 AM,25.7,10.4,52,29.94,10.0,NW,18.4,27.6,N/A,,Mostly Cloudy,310,2012-12-09 11:15:00
5:35 AM,24.6,10.4,55,29.96,10.0,NW,18.4,23.0,N/A,,Mostly Cloudy,310,2012-12-09 11:35:00
5:55 AM,22.5,9.1,57,29.98,10.0,NW,25.3,36.8,N/A,,Clear,310,2012-12-09 11:55:00
6:15 AM,21.0,9.5,61,29.99,10.0,NNW,20.7,27.6,N/A,,Clear,330,2012-12-09 12:15:00
6:35 AM,19.4,8.6,63,30.00,10.0,NW,20.7,29.9,N/A,,Clear,320,2012-12-09 12:35:00
6:55 AM,18.0,7.0,62,30.01,10.0,NNW,26.5,35.7,N/A,,Clear,330,2012-12-09 12:55:00
7:15 AM,15.8,4.1,60,30.03,10.0,NW,29.9,34.5,N/A,,Clear,320,2012-12-09 13:15:00
7:35 AM,14.9,3.4,60,30.04,10.0,NW,24.2,34.5,N/A,,Clear,320,2012-12-09 13:35:00
7:55 AM,14.7,3.2,60,30.05,10.0,NW,24.2,31.1,N/A,,Scattered Clouds,320,2012-12-09 13:55:00
8:15 AM,15.4,3.6,59,30.07,10.0,NW,26.5,31.1,N/A,,Overcast,310,2012-12-09 14:15:00
8:35 AM,14.0,3.0,62,30.07,10.0,NW,28.8,32.2,N/A,,Scattered Clouds,320,2012-12-09 14:35:00
8:55 AM,14.5,2.3,58,30.07,10.0,NW,25.3,31.1,N/A,,Clear,320,2012-12-09 14:55:00
9:35 AM,15.6,2.3,56,30.09,10.0,NNW,32.2,38.0,N/A,,Clear,330,2012-12-09 15:35:00
9:55 AM,16.2,2.3,54,30.09,10.0,NW,29.9,40.3,N/A,,Clear,320,2012-12-09 15:55:00
10:15 AM,16.5,2.1,53,30.09,10.0,NW,29.9,40.3,N/A,,Clear,320,2012-12-09 16:15:00
10:35 AM,17.6,2.7,52,30.10,10.0,NW,29.9,38.0,N/A,,Clear,320,2012-12-09 16:35:00
10:55 AM,18.3,2.8,51,30.11,10.0,NW,28.8,39.1,N/A,,Clear,320,2012-12-09 16:55:00
11:15 AM,18.7,3.0,51,30.11,10.0,NNW,26.5,36.8,N/A,,Clear,330,2012-12-09 17:15:00
11:35 AM,19.6,3.4,50,30.12,10.0,NNW,31.1,38.0,N/A,,Clear,330,2012-12-09 17:35:00
11:55 AM,20.1,3.4,48,30.11,10.0,NNW,31.1,39.1,N/A,,Clear,330,2012-12-09 17:55:00
12:15 PM,20.8,3.9,48,30.11,10.0,NW,31.1,38.0,N/A,,Clear,320,2012-12-09 18:15:00
12:35 PM,21.4,3.9,47,30.10,10.0,NNW,31.1,36.8,N/A,,Clear,340,2012-12-09 18:35:00
12:55 PM,21.2,3.2,46,30.10,10.0,NNW,25.3,38.0,N/A,,Clear,330,2012-12-09 18:55:00
1:15 PM,22.1,3.7,45,30.10,10.0,NNW,28.8,34.5,N/A,,Clear,330,2012-12-09 19:15:00
1:35 PM,22.1,3.9,46,30.10,10.0,NW,27.6,34.5,N/A,,Clear,320,2012-12-09 19:35:00
1:55 PM,22.1,3.6,45,30.11,10.0,NNW,25.3,33.4,N/A,,Clear,340,2012-12-09 19:55:00
2:15 PM,21.7,3.9,46,30.11,10.0,NNW,29.9,34.5,N/A,,Clear,330,2012-12-09 20:15:00
2:35 PM,21.9,4.5,47,30.12,10.0,NNW,25.3,31.1,N/A,,Clear,330,2012-12-09 20:35:00
2:55 PM,21.2,4.5,49,30.12,10.0,NNW,26.5,32.2,N/A,,Scattered Clouds,330,2012-12-09 20:55:00
3:15 PM,20.1,4.1,50,30.13,10.0,NNW,24.2,31.1,N/A,,Scattered Clouds,330,2012-12-09 21:15:00
3:35 PM,20.3,5.0,52,30.14,10.0,NNW,26.5,31.1,N/A,,Mostly Cloudy,330,2012-12-09 21:35:00
3:55 PM,20.7,5.2,51,30.15,10.0,NNW,21.9,31.1,N/A,,Overcast,340,2012-12-09 21:55:00
4:15 PM,20.3,5.7,53,30.16,10.0,NNW,24.2,28.8,N/A,,Overcast,340,2012-12-09 22:15:00
4:35 PM,20.1,5.9,54,30.17,10.0,NNW,24.2,32.2,N/A,,Overcast,340,2012-12-09 22:35:00
4:55 PM,19.2,5.7,56,30.18,10.0,NNW,21.9,29.9,N/A,,Overcast,340,2012-12-09 22:55:00
5:15 PM,18.1,5.5,58,30.18,10.0,NNW,27.6,32.2,N/A,,Overcast,330,2012-12-09 23:15:00
5:35 PM,17.2,5.5,60,30.19,10.0,NNW,21.9,26.5,N/A,,Overcast,330,2012-12-09 23:35:00
5:55 PM,16.3,4.1,59,30.20,10.0,NNW,21.9,28.8,N/A,,Scattered Clouds,330,2012-12-09 23:55:00
6:15 PM,15.8,2.8,57,30.20,10.0,NNW,19.6,-,N/A,,Mostly Cloudy,330,2012-12-10 00:15:00
6:35 PM,14.5,2.1,58,30.21,10.0,NW,21.9,25.3,N/A,,Scattered Clouds,320,2012-12-10 00:35:00
6:55 PM,14.0,0.5,55,30.22,10.0,NW,19.6,-,N/A,,Clear,320,2012-12-10 00:55:00
7:15 PM,13.1,0.5,57,30.22,10.0,NW,17.3,20.7,N/A,,Clear,320,2012-12-10 01:15:00
7:35 PM,12.9,0.7,58,30.22,10.0,NW,16.1,21.9,N/A,,Clear,320,2012-12-10 01:35:00
7:55 PM,12.2,0.9,60,30.24,10.0,NW,17.3,-,N/A,,Clear,320,2012-12-10 01:55:00
8:15 PM,12.0,1.8,64,30.23,10.0,NW,17.3,25.3,N/A,,Clear,320,2012-12-10 02:15:00
8:35 PM,11.3,1.8,66,30.22,10.0,NW,12.7,24.2,N/A,,Clear,320,2012-12-10 02:35:00
8:55 PM,10.4,1.9,69,30.22,10.0,NNW,13.8,-,N/A,,Clear,330,2012-12-10 02:55:00
9:15 PM,10.2,2.3,70,30.23,10.0,NW,17.3,-,N/A,,Clear,320,2012-12-10 03:15:00
9:35 PM,9.3,1.6,71,30.23,10.0,NW,10.4,-,N/A,,Clear,310,2012-12-10 03:35:00
9:55 PM,9.0,1.8,73,30.23,10.0,NW,11.5,-,N/A,,Clear,310,2012-12-10 03:55:00
10:15 PM,8.4,1.8,74,30.22,10.0,NW,12.7,-,N/A,,Clear,310,2012-12-10 04:15:00
10:35 PM,6.8,0.5,75,30.21,10.0,WNW,10.4,-,N/A,,Clear,300,2012-12-10 04:35:00
10:55 PM,6.4,0.5,77,30.20,10.0,WNW,9.2,-,N/A,,Clear,290,2012-12-10 04:55:00
11:15 PM,5.9,0.5,78,30.20,10.0,WNW,9.2,-,N/A,,Clear,300,2012-12-10 05:15:00
11:35 PM,5.9,0.3,78,30.20,10.0,WNW,12.7,-,N/A,,Clear,290,2012-12-10 05:35:00
11:55 PM,5.0,-0.6,78,30.19,10.0,WNW,13.8,-,N/A,,Clear,290,2012-12-10 05:55:00